Satellite: POLLUX
Catalog number: 35693
Epoch time:      09245.47951021
Element set:    0035
Inclination:      051.6406 deg
RA of node:       268.2443 deg
Eccentricity:    0.0003795
Arg of perigee:   116.7688 deg
Mean anomaly:     243.3699 deg
Mean motion:   15.81185727 rev/day
Decay rate:     2.0334e-04 rev/day^2
Epoch rev:           00534
Checksum:              307

Satellite: CASTOR
Catalog number: 35694
Epoch time:      09245.48778335
Element set:    0034
Inclination:      051.6412 deg
RA of node:       268.3064 deg
Eccentricity:    0.0004142
Arg of perigee:   128.4998 deg
Mean anomaly:     231.6375 deg
Mean motion:   15.80534110 rev/day
Decay rate:     1.0971e-04 rev/day^2
Epoch rev:           00534
Checksum:              291

/EX



_______________________________________________
Via the Keps mailing list courtesy of AMSAT-NA
http://amsat.org/mailman/listinfo/keps

--- ViaMAIL!/WC v1.60d
 * Origin: Chowdanet (401-724-4410) telnet://chowdanet.com  (1:323/120)